Location: Maiden
(35.5760°N, 81.2120°W)
Time: 09:46:37
(UTC-04:00)

ISS - Visible Passes

Search period start: 23 October 2014 00:00
Search period end: 02 November 2014 00:00
Orbit: 413 x 416 km, 51.6° (Epoch: 23 October)

Date Brightness Start Highest point End Pass type
(mag) Time Alt. Az. Time Alt. Az. Time Alt. Az.
23 Oct -1.2 20:29:28 10° NW 20:30:55 22° NNW 20:30:55 22° NNW visible
24 Oct -2.0 19:40:35 10° NNW 19:43:26 25° NNE 19:44:05 24° NE visible
25 Oct -2.1 20:27:44 10° NW 20:30:15 43° W 20:30:15 43° W visible
26 Oct -3.4 19:38:30 10° NW 19:41:49 70° NE 19:43:42 23° ESE visible
27 Oct -0.7 20:26:40 10° W 20:28:59 18° SW 20:30:18 15° SSW visible
28 Oct -1.6 19:36:47 10° WNW 19:39:50 34° SW 19:42:52 10° SSE visible
30 Oct 0.1 19:36:31 10° WSW 19:37:29 11° SW 19:38:28 10° SW visible
